N5PRN Weather Reports


Display with metric or nautical units.
time (UTC)temp
F
wind
direction
speed
MPH
gust
MPH
rain 1hr
in
rain 24hr
in
rain mn
in
humidity
%
barometer
mb
20260510032107 66 255 0.0 0.0 0.00 0.80 0.80 99 1012.7
20260510031602 66 253 0.0 0.0 0.00 0.80 0.80 99 1012.8
20260510031059 66 252 0.0 0.0 0.00 0.80 0.80 99 1012.6
20260510030554 66 266 0.0 0.0 0.00 0.80 0.80 99 1012.5
20260510030051 66 266 0.0 0.0 0.00 0.80 0.80 99 1012.6
20260510025548 66 267 0.0 0.0 0.00 0.80 0.80 99 1012.4
20260510025046 66 266 0.0 0.0 0.00 0.80 0.80 99 1012.4
20260510024543 66 266 0.0 0.0 0.00 0.80 0.80 99 1012.5
20260510024038 66 266 0.0 0.0 0.00 0.80 0.80 99 1012.3
20260510023535 66 271 0.0 0.0 0.00 0.80 0.80 99 1012.5
20260510023032 67 280 0.0 0.0 0.00 0.80 0.80 99 1012.3
20260510022531 67 281 0.0 0.0 0.00 0.80 0.80 99 1012.3
20260510022026 67 280 0.0 0.0 0.00 0.80 0.80 99 1012.2
20260510021523 67 262 0.0 0.0 0.00 0.80 0.80 99 1012.1
20260510021021 67 264 0.0 0.0 0.00 0.80 0.80 99 1012.1
20260510020515 67 286 0.0 0.0 0.00 0.80 0.80 99 1012.3
20260510020010 67 286 0.0 0.0 0.00 0.80 0.80 99 1012.2
20260510015506 67 286 0.0 0.0 0.00 0.80 0.80 99 1012.2
20260510015002 67 286 0.0 0.0 0.00 0.80 0.80 99 1012.0
20260510014500 67 286 0.0 0.0 0.00 0.80 0.80 99 1012.0
20260510013956 67 286 0.0 0.0 0.00 0.80 0.80 99 1011.9
20260510013451 67 286 0.0 0.0 0.00 0.80 0.80 99 1011.8
20260510012946 67 286 0.0 0.0 0.00 0.80 0.80 99 1011.8
20260510012442 67 286 0.0 0.0 0.00 0.80 0.80 99 1011.9
20260510011936 68 287 0.0 0.0 0.00 0.80 0.80 99 1011.7
20260510011426 68 245 0.0 0.0 0.00 0.80 0.80 99 1011.5
20260510010922 68 244 0.0 0.0 0.00 0.80 0.80 99 1011.5
20260510010420 68 244 0.0 0.0 0.00 0.80 0.80 99 1011.2
20260510005916 68 243 0.0 0.0 0.00 0.80 0.80 99 1011.3
20260510005412 68 278 0.0 0.0 0.00 0.80 0.80 99 1011.1
20260510004910 68 279 0.0 0.0 0.00 0.80 0.80 99 1011.1
20260510004407 68 281 0.0 0.0 0.00 0.80 0.80 99 1011.1
20260510003905 68 274 0.0 0.0 0.00 0.80 0.80 99 1011.0
20260510003402 68 270 0.0 0.0 0.00 0.80 0.80 99 1010.7
20260510002901 68 270 0.0 0.0 0.00 0.80 0.80 99 1010.8
20260510002358 68 242 0.0 0.0 0.00 0.80 0.80 99 1011.0
20260510001854 68 227 0.0 0.0 0.00 0.80 0.80 99 1010.9
20260510001353 68 285 0.0 0.0 0.00 0.80 0.80 99 1011.1
20260510000849 68 287 0.0 0.0 0.00 0.80 0.80 99 1011.1
20260510000348 68 295 0.0 0.0 0.00 0.80 0.80 99 1011.1
20260509235842 68 247 0.0 0.0 0.00 0.80 0.80 99 1011.4
20260509235339 68 253 0.0 0.0 0.00 0.80 0.80 99 1011.2
20260509234835 68 237 0.0 0.0 0.00 0.80 0.80 99 1011.4
20260509234332 68 192 0.0 1.0 0.00 0.80 0.80 99 1011.0
20260509233830 68 241 1.0 1.0 0.00 0.80 0.80 99 1011.3
20260509233328 68 234 2.0 2.0 0.00 0.80 0.80 99 1011.1
20260509232823 68 206 0.0 1.0 0.00 0.80 0.80 99 1011.1
20260509232321 69 243 1.0 2.0 0.00 0.80 0.80 99 1011.0
20260509231817 68 231 2.0 2.0 0.00 0.80 0.80 99 1010.8
20260509231314 69 248 0.0 0.0 0.00 0.80 0.80 99 1010.8
20260509230812 69 243 0.0 0.0 0.00 0.80 0.80 99 1010.7
20260509230309 69 241 0.0 0.0 0.00 0.80 0.80 99 1011.1
20260509225803 69 232 2.0 3.0 0.00 0.80 0.80 99 1010.8
20260509225300 69 272 0.0 0.0 0.00 0.80 0.80 99 1011.3
20260509224756 69 233 0.0 1.0 0.00 0.80 0.80 99 1011.0
20260509224253 69 244 1.0 3.0 0.00 0.80 0.80 99 1010.9
20260509223750 69 247 0.0 0.0 0.00 0.80 0.80 99 1011.2
20260509223247 69 252 3.0 6.0 0.00 0.80 0.80 99 1011.1
20260509222743 69 218 0.0 0.0 0.00 0.80 0.80 99 1010.8
20260509222239 69 189 3.0 5.0 0.00 0.80 0.80 99 1011.2
20260509221734 69 203 1.0 1.0 0.00 0.80 0.80 99 1011.2
20260509221231 70 230 2.0 3.0 0.00 0.80 0.80 99 1010.8
20260509220727 70 198 1.0 1.0 0.00 0.80 0.80 99 1010.8
20260509220224 70 246 0.0 0.0 0.00 0.80 0.80 99 1010.7
20260509215719 70 247 0.0 0.0 0.00 0.80 0.80 99 1010.7
20260509215216 70 252 0.0 0.0 0.00 0.80 0.80 99 1010.4
20260509214713 70 254 0.0 0.0 0.07 0.80 0.80 99 1010.4
20260509214210 70 254 0.0 0.0 0.12 0.80 0.80 99 1010.6
20260509213707 70 231 1.0 1.0 0.12 0.79 0.79 99 1010.5
20260509213202 70 203 2.0 2.0 0.12 0.78 0.78 99 1010.7
20260509212700 70 278 0.0 0.0 0.17 0.77 0.77 99 1010.7
20260509212157 70 253 0.0 0.0 0.19 0.76 0.76 99 1010.8
20260509211653 70 253 0.0 0.0 0.19 0.74 0.74 99 1010.6
20260509211150 70 263 0.0 0.0 0.24 0.73 0.73 99 1010.8
20260509210646 70 292 0.0 0.0 0.24 0.71 0.71 99 1010.5
20260509210143 70 290 0.0 0.0 0.24 0.69 0.69 99 1010.6
20260509205639 70 243 0.0 0.0 0.24 0.67 0.67 99 1010.8
20260509205138 69 257 0.0 0.0 0.26 0.65 0.65 99 1010.8
20260509204635 69 275 0.0 0.0 0.31 0.63 0.63 99 1011.0
20260509204131 68 275 0.0 0.0 0.28 0.61 0.61 99 1011.1
20260509203627 68 302 0.0 1.0 0.28 0.59 0.59 99 1011.1
20260509203126 69 316 1.0 1.0 0.31 0.56 0.56 99 1011.3
20260509202626 69 266 0.0 0.0 0.17 0.53 0.53 99 1011.3
20260509202121 70 253 0.0 0.0 0.12 0.51 0.51 99 1011.3
20260509201616 70 281 0.0 0.0 0.07 0.50 0.50 99 1011.1
20260509201114 70 267 0.0 0.0 0.00 0.49 0.49 99 1011.3
20260509200609 70 275 0.0 0.0 0.00 0.49 0.49 99 1011.2
20260509200105 70 274 0.0 0.0 0.00 0.49 0.49 99 1011.5
20260509195601 70 274 0.0 0.0 0.00 0.49 0.49 98 1011.3
20260509195056 70 274 0.0 0.0 0.00 0.49 0.49 98 1011.5
20260509194555 70 275 0.0 0.0 0.00 0.49 0.49 98 1011.4
20260509194054 70 267 0.0 0.0 0.00 0.49 0.49 97 1011.2
20260509193548 70 264 0.0 0.0 0.00 0.49 0.49 97 1011.2
20260509193045 70 271 0.0 0.0 0.00 0.49 0.49 97 1011.4
20260509192542 70 259 0.0 0.0 0.00 0.49 0.49 98 1011.2
20260509192037 70 258 0.0 0.0 0.00 0.49 0.49 97 1011.2
20260509191531 70 312 0.0 0.0 0.00 0.49 0.49 98 1011.2
20260509191027 70 297 0.0 0.0 0.00 0.49 0.49 98 1011.2
20260509190525 70 281 0.0 0.0 0.00 0.49 0.49 98 1011.4
20260509190023 71 280 0.0 0.0 0.00 0.49 0.49 97 1011.5
20260509185520 71 283 0.0 0.0 0.00 0.49 0.49 98 1011.4
20260509185016 71 283 0.0 0.0 0.00 0.49 0.49 98 1011.5
20260509184514 71 282 0.0 0.0 0.07 0.49 0.49 98 1011.2
20260509184010 71 277 0.0 0.0 0.07 0.49 0.49 97 1011.5
20260509183505 71 265 0.0 0.0 0.00 0.48 0.48 96 1011.5
20260509183001 70 257 0.0 0.0 0.00 0.48 0.48 96 1011.4
20260509182452 71 283 0.0 0.0 0.00 0.48 0.48 96 1011.5
20260509181949 70 254 0.0 0.0 0.00 0.48 0.48 94 1011.4
20260509181447 71 235 2.0 2.0 0.00 0.48 0.48 93 1011.6
20260509180944 71 248 0.0 0.0 0.00 0.48 0.48 94 1011.6
20260509180440 71 200 0.0 0.0 0.00 0.48 0.48 94 1011.4
20260509175937 71 254 0.0 0.0 0.00 0.48 0.48 95 1011.5
20260509175434 71 243 0.0 0.0 0.00 0.48 0.48 95 1011.6
20260509174930 71 287 0.0 0.0 0.00 0.48 0.48 95 1011.5
20260509174426 71 214 1.0 1.0 0.00 0.48 0.48 94 1011.7
20260509173921 71 246 0.0 0.0 0.00 0.48 0.48 94 1011.6
20260509173415 71 235 0.0 0.0 0.00 0.48 0.48 94 1011.7
20260509172912 71 234 1.0 1.0 0.00 0.48 0.48 95 1011.9
20260509172408 71 306 1.0 1.0 0.00 0.48 0.48 96 1011.8
20260509171904 70 234 0.0 0.0 0.00 0.48 0.48 96 1012.0
20260509171400 70 251 1.0 1.0 0.00 0.48 0.48 96 1012.0
20260509170852 70 270 0.0 0.0 0.00 0.48 0.48 96 1012.1
20260509170347 70 333 0.0 0.0 0.00 0.48 0.48 97 1012.2
20260509165842 70 278 0.0 0.0 0.00 0.48 0.48 99 1012.1
20260509165336 70 259 0.0 0.0 0.00 0.48 0.48 99 1012.4
20260509164832 69 298 0.0 0.0 0.00 0.48 0.48 99 1012.3
20260509164323 69 17 0.0 0.0 0.00 0.48 0.48 99 1012.1
20260509163820 69 275 0.0 0.0 0.00 0.48 0.48 99 1012.2
20260509163316 69 239 0.0 0.0 0.00 0.48 0.48 99 1012.4
20260509162816 69 251 0.0 0.0 0.00 0.48 0.48 99 1012.1
20260509162314 69 276 0.0 0.0 0.00 0.48 0.48 99 1012.2
20260509161811 69 240 0.0 0.0 0.00 0.48 0.48 99 1012.0
20260509161307 68 253 0.0 0.0 0.00 0.48 0.48 99 1012.1
20260509160802 68 255 0.0 0.0 0.00 0.48 0.48 99 1011.9
20260509160259 68 265 0.0 0.0 0.00 0.48 0.48 99 1011.9
20260509155754 68 291 0.0 1.0 0.00 0.48 0.48 99 1012.3
20260509155245 68 246 1.0 2.0 0.00 0.48 0.48 99 1012.0
20260509154741 69 251 0.0 1.0 0.00 0.48 0.48 99 1012.0
20260509154239 69 254 0.0 0.0 0.00 0.48 0.48 99 1011.9
20260509153736 69 239 0.0 0.0 0.00 0.48 0.48 99 1011.9
20260509153231 69 291 0.0 0.0 0.00 0.48 0.48 99 1011.6
20260509152728 69 291 0.0 0.0 0.00 0.48 0.48 99 1011.5
20260509152225 69 307 0.0 0.0 0.00 0.48 0.48 99 1011.4
20260509151722 69 250 0.0 0.0 0.00 0.48 0.48 99 1011.5
20260509151218 69 259 0.0 0.0 0.00 0.48 0.48 99 1011.5
20260509150716 68 248 0.0 0.0 0.00 0.48 0.48 99 1011.4
20260509150214 68 262 0.0 0.0 0.00 0.48 0.48 99 1011.5
20260509145710 68 288 0.0 0.0 0.00 0.48 0.48 99 1011.2
20260509145206 68 278 0.0 0.0 0.00 0.48 0.48 99 1011.6
20260509144702 67 275 0.0 0.0 0.00 0.48 0.48 99 1012.0
20260509144200 67 273 0.0 0.0 0.00 0.48 0.48 99 1011.5
20260509143657 67 273 0.0 0.0 0.00 0.48 0.48 99 1011.7
20260509143154 67 271 0.0 0.0 0.00 0.48 0.48 99 1011.7
20260509142650 67 260 0.0 0.0 0.00 0.48 0.48 99 1011.6
20260509142147 66 255 0.0 0.0 0.00 0.48 0.48 99 1011.5
20260509141642 66 240 0.0 0.0 0.00 0.48 0.48 99 1011.3
20260509141139 66 246 0.0 0.0 0.00 0.48 0.48 99 1011.3
20260509140636 66 248 0.0 0.0 0.00 0.48 0.48 99 1011.2
20260509140134 66 250 0.0 0.0 0.00 0.48 0.48 99 1011.4
20260509135631 66 278 0.0 0.0 0.00 0.48 0.48 99 1011.0
20260509135129 66 287 0.0 0.0 0.00 0.48 0.48 99 1011.2
20260509134625 66 262 0.0 0.0 0.00 0.48 0.48 99 1011.3
20260509134123 65 281 0.0 0.0 0.00 0.48 0.48 99 1011.4
20260509133620 65 281 0.0 0.0 0.00 0.48 0.48 99 1011.3
20260509133117 65 281 0.0 0.0 0.00 0.48 0.48 99 1011.4
20260509132615 65 259 0.0 0.0 0.00 0.48 0.48 99 1011.6
20260509132113 65 254 0.0 0.0 0.00 0.48 0.48 99 1011.3
20260509131609 65 254 0.0 0.0 0.00 0.48 0.48 99 1011.5
20260509131106 65 272 0.0 0.0 0.00 0.48 0.48 99 1011.4
20260509130602 65 254 0.0 0.0 0.00 0.48 0.48 99 1011.5
20260509130059 65 239 0.0 0.0 0.00 0.48 0.48 99 1011.7
20260509125555 65 251 0.0 0.0 0.00 0.48 0.48 99 1011.6
20260509125051 65 323 2.0 2.0 0.00 0.48 0.48 99 1011.7
20260509124548 64 281 0.0 0.0 0.00 0.48 0.48 99 1011.4
20260509124045 64 286 0.0 1.0 0.00 0.48 0.48 99 1011.5
20260509123543 64 286 0.0 0.0 0.00 0.48 0.48 99 1011.4
20260509123039 64 276 0.0 0.0 0.00 0.48 0.48 99 1011.5
20260509122536 64 255 0.0 0.0 0.00 0.48 0.48 99 1011.8
20260509122033 64 265 0.0 0.0 0.00 0.48 0.48 99 1011.6
20260509121529 64 299 1.0 1.0 0.00 0.48 0.48 99 1011.3
20260509121027 64 269 0.0 0.0 0.00 0.48 0.48 99 1011.6
20260509120525 64 255 0.0 0.0 0.00 0.48 0.48 99 1011.1
20260509120023 64 255 0.0 1.0 0.00 0.48 0.48 99 1011.3
20260509115520 64 279 0.0 0.0 0.00 0.48 0.48 99 1011.0
20260509115018 64 280 0.0 0.0 0.00 0.48 0.48 99 1011.3
20260509114516 64 257 0.0 0.0 0.00 0.48 0.48 99 1011.2
20260509114015 64 249 0.0 0.0 0.00 0.48 0.48 99 1010.9
20260509113512 64 244 1.0 1.0 0.00 0.48 0.48 99 1011.0
20260509113010 64 259 0.0 0.0 0.00 0.48 0.48 99 1010.7
20260509112506 64 241 0.0 1.0 0.00 0.48 0.48 99 1011.0
20260509112002 64 208 2.0 3.0 0.00 0.48 0.48 99 1010.7
20260509111500 64 242 0.0 0.0 0.00 0.48 0.48 99 1010.6
20260509110957 64 240 0.0 0.0 0.00 0.48 0.48 99 1010.4
20260509110453 64 245 0.0 0.0 0.00 0.48 0.48 99 1010.5
20260509105951 64 245 0.0 0.0 0.00 0.48 0.48 99 1010.4
20260509105449 64 253 0.0 0.0 0.00 0.48 0.48 99 1010.5
20260509104946 64 221 0.0 0.0 0.05 0.48 0.48 99 1010.8
20260509104443 64 276 0.0 0.0 0.12 0.48 0.48 99 1010.9
20260509103940 64 268 0.0 0.0 0.12 0.47 0.47 99 1011.1
20260509103438 64 291 0.0 0.0 0.12 0.46 0.46 99 1011.1
20260509102936 64 276 0.0 0.0 0.19 0.45 0.45 99 1010.7
20260509102433 64 233 0.0 0.0 0.17 0.44 0.44 99 1010.3
20260509101929 64 261 0.0 0.0 0.24 0.43 0.43 99 1010.2
20260509101425 64 262 0.0 0.0 0.24 0.41 0.41 99 1009.8
20260509100923 64 251 0.0 0.0 0.26 0.39 0.39 99 1009.9
20260509100420 64 282 0.0 0.0 0.24 0.38 0.38 99 1010.2
20260509095916 64 270 0.0 0.0 0.31 0.36 0.36 99 1009.6
20260509095414 64 232 0.0 0.0 0.28 0.33 0.33 99 1010.1
20260509094911 64 265 0.0 0.0 0.28 0.31 0.31 99 1010.0
20260509094407 65 244 0.0 0.0 0.35 0.29 0.29 99 1010.4
20260509093905 65 246 0.0 0.0 0.38 0.26 0.26 99 1010.4
20260509093402 65 221 1.0 1.0 0.42 0.23 0.23 99 1010.6
20260509092901 65 48 3.0 3.0 0.40 0.20 0.20 99 1010.8
20260509092357 65 249 0.0 0.0 0.42 0.17 0.17 99 1011.2
20260509091856 65 159 1.0 2.0 0.50 0.13 0.13 99 1011.6
20260509091352 66 245 2.0 2.0 0.47 0.09 0.09 99 1011.6
20260509090850 67 350 3.0 3.0 0.28 0.05 0.05 99 1011.6
20260509090347 67 50 7.0 10.0 0.05 0.01 0.01 99 1012.4
20260509085844 67 31 2.0 2.0 0.00 0.00 0.00 99 1011.3
20260509085341 67 235 0.0 0.0 0.00 0.00 0.00 99 1010.0
20260509084838 67 232 0.0 0.0 0.00 0.00 0.00 99 1009.6
20260509084335 67 236 0.0 0.0 0.00 0.00 0.00 99 1009.8
20260509083833 66 260 0.0 0.0 0.00 0.00 0.00 99 1009.9
20260509083329 66 261 0.0 0.0 0.00 0.00 0.00 99 1009.9
20260509082826 66 261 0.0 0.0 0.00 0.00 0.00 99 1009.8
20260509082322 66 262 0.0 0.0 0.00 0.00 0.00 99 1009.6
20260509081820 66 238 0.0 0.0 0.00 0.00 0.00 99 1009.6
20260509081317 66 238 0.0 0.0 0.00 0.00 0.00 99 1009.5
20260509080815 66 239 0.0 0.0 0.00 0.00 0.00 99 1009.4
20260509080313 66 239 0.0 0.0 0.00 0.00 0.00 99 1009.3
20260509075811 66 240 1.0 2.0 0.00 0.00 0.00 99 1009.4
20260509075307 66 235 0.0 0.0 0.00 0.00 0.00 99 1009.2
20260509074804 66 238 0.0 0.0 0.00 0.00 0.00 99 1009.5
20260509074302 66 266 0.0 0.0 0.00 0.00 0.00 99 1009.7
20260509073758 66 266 0.0 0.0 0.00 0.00 0.00 99 1009.5
20260509073254 66 265 0.0 0.0 0.00 0.00 0.00 99 1009.6
20260509072751 67 266 0.0 0.0 0.00 0.00 0.00 99 1009.6
20260509072248 67 242 1.0 1.0 0.00 0.00 0.00 99 1009.7
20260509071744 67 249 0.0 0.0 0.00 0.00 0.00 99 1009.7
20260509071242 66 234 0.0 1.0 0.00 0.00 0.00 99 1010.0
20260509070738 66 237 0.0 1.0 0.00 0.00 0.00 99 1010.1
20260509070235 66 257 0.0 0.0 0.00 0.00 0.00 99 1010.0
20260509065732 67 258 0.0 0.0 0.00 0.00 0.00 99 1010.1
20260509065227 67 258 0.0 0.0 0.00 0.00 0.00 99 1010.0
20260509064724 67 237 0.0 0.0 0.00 0.00 0.00 99 1010.2
20260509064222 67 226 0.0 0.0 0.00 0.00 0.00 99 1010.4
20260509063719 67 227 0.0 0.0 0.00 0.00 0.00 99 1010.8
20260509063215 67 239 0.0 0.0 0.00 0.00 0.00 99 1011.0
20260509062713 67 238 0.0 0.0 0.00 0.00 0.00 99 1011.1
20260509062210 67 239 0.0 0.0 0.00 0.00 0.00 99 1011.3
20260509061707 67 239 0.0 0.0 0.00 0.00 0.00 99 1011.2
20260509061204 67 238 0.0 0.0 0.00 0.00 0.00 99 1011.6
20260509060702 67 265 0.0 0.0 0.00 0.00 0.00 99 1011.4
20260509060158 67 272 0.0 0.0 0.00 0.00 0.00 99 1011.5
20260509055654 67 272 0.0 0.0 0.00 0.00 0.00 99 1011.8
20260509055149 67 272 0.0 0.0 0.00 0.00 0.00 99 1011.7
20260509054646 67 272 0.0 0.0 0.00 0.00 0.00 99 1011.8
20260509054144 67 272 0.0 0.0 0.00 0.00 0.00 99 1011.7
20260509053642 67 272 0.0 0.0 0.00 0.00 0.00 99 1011.8
20260509053139 67 272 0.0 0.0 0.00 0.00 0.00 99 1011.8
20260509052636 67 272 0.0 0.0 0.00 0.00 0.00 99 1011.6
20260509052134 67 270 0.0 0.0 0.00 0.00 0.00 99 1011.7
20260509051632 67 268 0.0 0.0 0.00 0.00 0.00 99 1011.7
20260509051128 67 269 0.0 0.0 0.00 0.00 0.00 99 1011.8
20260509050626 67 268 0.0 0.0 0.00 0.00 0.00 99 1011.5
20260509050122 67 280 0.0 0.0 0.00 0.00 0.00 99 1011.5
20260509045620 67 294 0.0 0.0 0.00 0.23 0.23 99 1011.5
20260509045116 67 330 0.0 0.0 0.00 0.23 0.23 99 1011.6
20260509044614 67 242 0.0 0.0 0.00 0.23 0.23 99 1011.2
20260509044111 67 228 0.0 0.0 0.00 0.23 0.23 99 1011.3
20260509043607 67 237 0.0 0.0 0.00 0.23 0.23 99 1011.4
20260509043103 67 258 0.0 0.0 0.00 0.23 0.23 99 1011.7
20260509042559 67 233 0.0 0.0 0.00 0.23 0.23 99 1011.5
20260509042055 67 304 0.0 0.0 0.00 0.23 0.23 99 1011.3
20260509041552 67 264 0.0 0.0 0.00 0.23 0.23 99 1011.1
20260509041050 67 245 0.0 0.0 0.00 0.23 0.23 99 1010.9
20260509040548 67 244 0.0 0.0 0.00 0.23 0.23 99 1010.9
20260509040045 67 303 0.0 0.0 0.00 0.23 0.23 99 1010.8
20260509035541 67 261 0.0 0.0 0.00 0.23 0.23 99 1010.7
20260509035038 67 220 1.0 2.0 0.00 0.23 0.23 99 1010.9
20260509034537 67 228 1.0 2.0 0.00 0.23 0.23 99 1010.8
20260509034033 67 187 2.0 2.0 0.00 0.23 0.23 99 1010.7
20260509033530 67 236 0.0 1.0 0.00 0.23 0.23 99 1010.6
20260509033027 67 226 0.0 0.0 0.00 0.23 0.23 99 1010.8
20260509032524 67 211 0.0 0.0 0.00 0.23 0.23 99 1010.5